Location: Acheville
(50.3840°N, 2.8827°E)
Time: 07:10:07
(UTC+00:00)

SWARM A - Visible Passes

Search period start: 21 May 2022 00:00
Search period end: 31 May 2022 00:00
Orbit: 434 x 438 km, 87.4° (Epoch: 19 May)

Date Brightness Start Highest point End Pass type
(mag) Time Alt. Az. Time Alt. Az. Time Alt. Az.
21 May 4.6 23:20:03 49° ESE 23:20:19 50° E 23:23:36 10° NNE visible
22 May 6.7 00:53:25 11° W 00:54:12 12° WNW 00:55:39 10° NW visible
22 May 6.0 22:40:29 20° E 22:40:57 20° E 22:43:30 10° NNE visible
23 May 5.6 00:13:51 26° W 00:14:21 28° W 00:17:19 10° NNW visible
23 May 4.2 23:34:16 63° SW 23:34:40 75° W 23:38:02 10° N visible
24 May 5.0 22:54:39 36° ESE 22:55:08 38° E 22:58:18 10° NNE visible
25 May 6.5 00:28:00 14° W 00:28:52 15° WNW 00:30:56 10° NW visible
25 May 6.3 22:15:01 15° E 22:15:45 16° E 22:17:54 10° NE visible
25 May 5.3 23:48:22 32° WSW 23:49:01 35° W 23:52:09 10° NNW visible
26 May 4.1 23:08:42 57° S 23:09:18 83° E 23:12:41 10° N visible
27 May 5.4 22:29:00 27° ESE 22:29:45 30° E 22:32:44 10° NNE visible
28 May 6.3 00:02:21 17° W 00:03:22 19° WNW 00:05:50 10° NNW visible
28 May 6.5 21:49:17 12° E 21:50:21 13° ENE 21:51:57 10° NE visible
28 May 4.9 23:22:38 36° SW 23:23:29 46° W 23:26:45 10° N visible
29 May 4.4 22:42:53 42° SSE 22:43:46 62° E 22:47:06 10° N visible
30 May 7.0 00:17:07 10° W 00:17:43 10° WNW 00:18:20 10° WNW visible
30 May 5.8 22:03:07 20° ESE 22:04:12 23° E 22:06:56 10° NNE visible
30 May 6.1 23:36:28 19° WSW 23:37:41 24° WNW 23:40:28 10° NNW visible
